Wind_Speed
16 15 16 16 13 13 14 13 11 11 9 8 8 8 8 7 4 3 3 4 4 5 5 5 6 8 10 10 11 12 12 13 12 11 11 10 9 9 10 10 11 11 11 11 11 11 11 12 12 13 13 14 14 14 14 13 13 12 13 13 13 14 13 13 12 12 12 12 12 13 13 13 13 13
18 17 17 17 16 14 14 14 13 12 10 9 9 10 10 10 8 5 4 4 4 4 4 4 4 6 8 8 8 8 8 9 8 8 7 7 7 8 9 9 10 9 9 9 10 10 10 11 11 11 12 13 13 13 13 13 12 13 13 13 13 14 14 14 14 13 13 13 13 13 14 14 14 14
20 19 18 19 18 16 14 14 14 14 12 10 9 9 10 11 11 8 6 4 4 4 4 3 4 7 7 7 8 8 8 8 8 7 7 7 8 9 9 8 8 8 8 9 9 10 10 11 11 11 12 12 13 13 14 14 13 14 14 14 14 15 15 15 15 15 15 15 15 15 15 15 15 15
21 20 19 20 19 17 15 15 15 15 14 12 11 9 9 11 11 9 7 6 5 5 6 5 5 7 8 9 9 8 7 8 9 9 9 9 9 8 7 7 8 8 9 9 10 11 11 10 11 12 12 13 12 12 13 13 14 14 15 15 15 15 15 15 16 17 17 18 18 18 18 18 18 17
22 21 20 21 20 19 17 17 16 15 16 15 13 12 11 10 11 10 9 8 7 7 7 7 6 7 7 8 9 8 6 6 7 8 9 9 9 8 7 7 9 10 11 12 12 11 10 10 11 12 13 13 12 12 12 12 13 13 14 15 15 16 17 18 18 19 20 20 21 21 21 20 20 19
23 22 21 21 21 21 19 18 17 16 17 17 15 15 14 12 12 12 11 9 8 8 7 7 7 8 9 8 9 8 6 5 6 7 8 9 9 9 8 8 9 11 13 14 14 13 11 11 12 13 13 13 13 12 11 12 13 14 15 16 17 18 20 21 21 21 22 21 21 21 21 22 22 21
24 23 23 22 22 22 21 20 18 16 17 17 16 16 16 14 12 14 14 11 10 9 7 7 7 8 9 10 10 9 8 8 8 8 8 8 9 10 9 9 10 13 14 14 15 14 13 12 12 13 14 14 14 13 13 13 15 16 18 19 21 22 22 22 23 22 22 22 21 21 21 21 22 22
26 25 25 24 23 23 22 21 20 19 18 18 18 17 17 16 15 15 16 15 13 10 8 8 9 8 8 9 9 10 10 9 9 10 9 8 9 9 9 9 11 13 13 13 14 14 13 12 13 13 14 14 14 14 15 16 18 19 21 22 22 23 22 22 22 22 22 22 22 22 21 21 21 21
28 28 28 27 25 23 23 21 21 21 20 20 19 18 18 18 18 17 18 18 16 13 10 10 10 10 9 9 10 11 11 9 9 9 9 9 9 10 10 11 12 13 12 12 12 13 13 13 13 14 14 14 14 15 15 17 19 20 21 21 21 20 21 21 20 20 20 19 19 20 21 21 21 21
29 29 29 29 27 26 24 23 23 24 23 22 22 21 20 20 20 19 19 19 18 16 13 12 11 11 11 10 10 11 12 10 8 7 8 9 10 12 14 14 13 12 12 11 11 11 10 11 13 14 15 16 16 16 17 18 19 19 18 19 19 18 19 19 18 17 18 18 18 17 18 19 20 20
29 29 30 30 29 29 27 26 26 26 25 24 23 23 21 21 21 19 18 19 18 16 14 13 13 12 11 11 11 11 12 11 9 8 7 8 10 14 15 14 12 12 13 14 14 14 12 13 15 16 17 17 16 16 18 19 18 17 17 17 18 17 17 16 14 14 15 15 15 15 15 15 16 17
29 29 29 30 30 30 30 29 28 27 25 24 23 22 20 20 20 18 16 17 17 15 13 13 13 12 11 11 10 11 10 9 8 8 7 8 10 13 15 14 13 13 14 15 15 15 15 14 15 17 18 17 17 18 20 20 19 18 18 18 17 17 16 14 12 12 13 14 14 14 13 13 13 13
30 31 31 30 30 30 30 29 28 26 24 24 23 21 19 19 20 18 15 15 15 14 14 13 12 11 11 11 10 10 9 8 8 7 7 7 8 9 12 13 11 10 11 11 11 13 13 13 15 16 16 16 18 20 19 18 17 17 18 18 17 16 15 14 14 15 16 17 17 17 17 16 15 15
30 32 32 31 30 31 30 28 27 25 24 25 24 21 20 19 19 18 16 15 15 14 14 14 13 12 12 11 10 9 9 8 7 6 6 5 7 8 9 10 9 9 8 8 10 12 12 12 13 14 13 15 17 17 16 15 16 17 17 16 15 15 16 18 20 21 22 22 22 22 21 21 20 19
31 32 32 32 31 31 30 28 27 25 24 26 25 23 21 21 20 19 17 16 16 15 14 14 13 12 12 10 9 9 8 7 6 5 4 5 7 8 9 9 9 9 8 8 11 12 12 11 12 14 15 16 15 14 15 16 17 17 15 15 16 18 20 22 24 24 23 22 20 20 20 20 20 21
32 32 31 31 32 31 29 27 26 25 23 26 27 23 22 22 22 21 21 20 17 16 15 14 13 12 12 11 9 8 7 6 5 5 4 6 8 9 10 11 10 8 8 9 12 13 13 12 13 14 14 14 14 14 16 17 17 17 18 19 20 21 21 21 20 18 17 16 15 16 16 17 18 19
33 32 31 31 31 30 28 26 25 24 23 25 26 23 21 22 22 22 23 23 20 17 16 15 14 12 11 10 8 8 7 5 5 5 5 7 8 9 10 12 11 9 9 10 11 13 13 12 12 14 13 13 13 14 15 17 19 19 20 20 20 19 18 16 14 14 14 14 15 15 16 16 16 17
34 34 33 32 32 30 28 26 25 24 23 23 25 23 21 21 22 23 24 23 22 19 16 14 13 11 10 9 8 8 7 6 5 6 7 8 8 9 11 11 11 11 11 9 9 11 11 10 11 13 14 14 14 13 14 17 19 17 16 16 15 15 14 14 14 14 14 15 15 16 16 16 16 16
35 35 34 33 33 31 29 28 26 25 22 22 24 22 19 18 19 21 23 22 20 18 16 14 12 10 10 10 9 7 6 5 6 6 7 7 7 8 10 11 11 11 9 7 6 8 10 10 11 13 14 15 15 13 14 16 17 14 13 14 14 13 14 15 15 15 15 15 16 16 16 16 17 17
35 35 34 34 33 31 30 30 28 24 20 21 24 21 16 15 16 17 20 21 19 17 15 13 12 11 11 10 9 8 6 6 6 5 6 6 7 8 10 10 9 8 6 5 5 8 11 10 10 13 15 15 15 14 13 13 14 14 14 14 15 16 17 17 18 18 18 18 18 17 16 16 17 17
35 35 35 34 33 32 31 30 28 23 19 20 22 19 15 16 16 16 19 21 19 17 14 12 12 12 11 9 8 7 7 7 6 5 6 7 6 7 8 7 6 6 6 4 5 8 11 10 11 13 14 14 15 14 11 11 14 16 16 17 18 19 19 19 20 20 21 21 20 19 17 16 17 18
31 35 36 35 33 33 33 31 28 24 21 20 21 19 17 18 18 17 19 20 18 15 14 13 13 11 9 7 7 7 7 7 6 6 6 6 5 5 5 5 5 7 6 3 4 8 11 11 11 12 13 14 13 11 10 12 14 16 17 19 21 21 19 19 19 19 20 20 20 19 19 19 19 18
24 27 32 35 34 33 32 31 27 24 23 22 21 19 19 20 20 19 21 21 19 17 16 14 13 10 8 8 8 7 8 8 7 7 6 5 4 4 4 4 5 6 5 3 5 10 12 11 11 11 12 11 11 12 12 13 14 15 18 19 19 19 19 19 18 18 19 19 20 21 22 22 20 17
23 21 25 31 34 33 31 29 25 23 25 25 21 21 22 22 21 22 22 21 20 18 16 15 12 11 10 9 8 7 7 7 6 6 6 5 4 3 3 4 5 7 6 4 7 10 11 12 12 11 11 10 11 14 16 15 16 17 17 17 17 18 19 18 18 19 20 21 22 22 22 21 19 16
23 20 21 25 32 34 30 27 24 24 28 28 23 22 23 23 24 26 24 21 19 17 15 14 12 11 10 8 7 6 6 5 5 6 6 5 5 4 4 5 6 8 8 7 9 10 9 11 12 12 11 11 12 16 18 18 18 17 16 16 17 17 17 18 18 18 19 20 20 20 20 20 19 17
25 22 21 23 30 33 28 25 25 26 29 29 25 23 24 25 26 26 24 21 19 16 14 13 11 10 10 8 8 7 7 7 7 7 6 6 5 5 5 6 7 9 9 10 11 10 9 10 11 11 12 12 14 16 18 19 19 17 16 16 17 18 18 18 18 17 17 17 17 17 19 21 20 20
23 20 20 23 28 30 27 26 27 28 30 31 27 25 26 26 25 24 23 22 19 15 14 13 12 11 11 9 9 9 8 8 8 7 6 6 5 6 7 7 9 10 10 11 11 10 9 10 10 10 11 12 14 16 16 18 19 19 19 18 18 19 19 17 16 16 16 17 16 17 19 19 19 19
20 20 23 25 26 27 27 27 29 29 29 30 28 26 26 26 26 25 24 23 20 16 14 13 12 12 12 11 10 10 9 8 8 7 6 6 7 7 8 9 10 10 10 10 9 9 9 10 9 10 10 11 13 14 15 17 19 20 20 21 20 20 18 16 16 16 17 17 17 17 18 18 17 17
25 25 27 27 26 27 27 28 29 29 28 28 28 28 28 28 28 27 24 21 19 16 14 14 14 13 13 12 11 11 11 10 8 7 6 7 7 8 9 10 9 9 9 9 8 8 9 10 11 11 10 9 12 14 15 18 20 20 20 21 22 20 17 16 16 17 18 18 18 18 18 19 19 19
31 29 28 26 27 29 30 31 31 29 28 28 29 30 30 29 27 26 24 21 19 16 15 15 14 13 13 13 13 13 12 10 8 7 7 6 6 6 7 7 7 7 6 6 6 7 9 11 12 12 11 10 11 13 15 17 19 20 20 21 21 20 17 16 17 17 18 19 19 19 20 21 21 21
33 29 27 28 30 32 32 32 30 30 30 31 32 31 29 28 27 25 23 22 19 16 15 15 14 14 14 15 15 14 12 10 8 8 7 6 5 5 6 6 7 6 5 5 5 7 9 11 12 12 11 11 12 14 15 16 18 20 21 19 18 18 17 18 18 18 18 19 20 20 21 23 23 22
33 31 30 32 34 35 33 31 31 32 32 32 33 29 24 23 25 23 21 20 18 16 16 17 16 16 17 16 14 12 10 9 8 8 8 7 6 5 5 6 7 7 6 5 5 6 8 9 11 12 13 13 14 14 15 16 17 19 19 18 17 17 18 19 19 19 19 20 21 21 22 24 25 23
36 36 37 37 36 36 35 32 30 28 27 27 28 26 23 23 23 20 18 19 18 18 20 20 18 18 17 14 12 11 10 8 8 9 10 8 7 6 6 7 8 7 7 7 7 7 7 7 10 13 15 15 15 15 15 16 17 17 16 16 16 18 19 19 19 19 20 21 22 23 24 25 25 24
43 41 38 37 37 36 33 29 26 23 22 22 23 25 27 26 23 19 18 18 19 21 22 20 18 17 15 13 13 12 10 8 9 10 10 8 7 7 7 8 8 7 7 8 8 7 7 8 10 12 13 13 13 14 14 15 15 15 14 13 15 17 19 19 19 19 20 20 21 23 25 25 24 23
44 43 39 34 33 32 29 26 24 23 22 20 20 24 27 25 21 20 18 18 21 23 22 18 16 15 14 13 12 11 10 9 9 9 9 8 8 8 8 8 8 7 7 8 7 6 7 8 10 11 11 11 12 12 11 10 10 11 12 13 15 16 17 19 20 20 20 20 20 21 24 25 25 25
40 41 40 33 30 29 28 27 25 24 22 21 23 27 25 21 21 22 21 22 24 23 19 17 15 15 14 13 11 10 10 9 9 9 9 9 8 7 8 8 8 7 7 8 7 6 6 7 8 9 10 10 10 10 8 7 7 10 12 14 15 15 17 19 19 19 19 19 19 20 22 24 26 27
37 37 35 31 29 29 30 30 28 24 22 23 26 28 25 23 23 23 22 24 25 21 18 16 15 14 14 13 11 10 10 10 10 9 8 8 8 8 8 8 7 7 7 7 7 6 6 6 6 6 7 7 6 7 9 10 11 12 13 14 15 16 17 18 19 19 19 19 19 20 21 24 27 28
32 29 27 27 30 32 33 33 31 26 23 23 25 25 22 21 24 24 23 24 22 19 17 16 13 13 13 12 11 11 11 10 9 9 8 8 8 8 8 7 7 7 7 7 7 6 6 6 6 5 6 6 6 7 10 13 15 14 15 16 16 16 16 18 19 20 20 20 20 20 21 23 26 29
29 27 27 28 33 37 39 38 36 33 29 27 27 25 21 20 22 24 23 21 19 17 15 14 13 13 12 11 11 11 11 10 9 9 8 8 8 8 8 7 6 7 7 7 7 6 6 6 5 5 5 7 9 10 13 16 19 19 19 17 15 14 16 17 18 20 21 20 20 21 22 24 26 28
34 33 32 31 32 36 40 40 40 39 35 31 30 29 24 21 21 22 20 19 19 17 14 13 13 13 12 12 12 11 10 10 9 8 8 8 8 8 7 6 6 7 8 8 8 7 6 5 5 6 8 11 14 16 16 17 20 21 19 16 14 15 17 18 17 19 20 19 20 22 23 24 26 27
36 36 37 36 34 35 38 40 40 38 35 31 29 28 25 22 21 21 20 20 20 17 14 13 14 13 12 12 12 10 9 9 8 7 8 8 8 8 6 5 6 7 8 8 9 8 6 6 7 9 12 13 15 15 13 13 15 16 16 15 16 17 19 19 19 19 20 19 19 20 20 23 26 26
32 33 34 35 34 35 36 37 36 35 33 31 30 28 26 24 23 22 21 21 19 16 14 13 14 13 12 12 12 10 9 8 7 7 9 9 8 7 6 5 6 7 8 9 10 9 8 8 9 9 10 10 10 10 11 12 14 15 16 17 17 17 18 19 21 22 22 21 18 17 18 21 22 22
32 32 33 33 33 34 35 35 35 34 32 31 31 30 27 25 23 22 21 20 19 16 14 13 14 13 12 11 11 10 8 7 7 8 9 9 8 6 5 5 6 7 8 10 10 10 9 9 8 7 8 8 9 10 12 14 15 16 16 17 18 18 17 18 19 21 22 21 18 17 18 19 19 20
35 35 36 36 36 35 35 34 34 33 32 32 31 29 27 26 24 21 20 19 18 16 14 14 14 13 12 11 10 9 8 7 8 9 9 9 7 6 5 6 6 8 9 10 10 10 9 8 7 7 7 9 10 11 13 14 15 16 16 17 18 18 18 19 20 19 19 18 16 17 19 21 22 25
36 37 37 38 37 35 34 33 32 32 32 32 30 29 28 26 23 20 19 19 18 16 15 15 14 13 12 11 10 9 8 8 8 9 10 9 7 6 6 6 7 8 9 10 10 10 9 8 7 6 7 9 10 11 12 14 15 15 16 17 17 18 19 20 20 20 19 17 15 17 20 23 24 27
Wind_Direction
239 242 244 243 242 249 254 249 242 240 242 240 232 223 221 225 235 248 242 243 245 239 245 259 273 275 273 271 265 259 259 264 272 277 274 266 257 249 250 256 266 275 280 283 286 287 288 288 287 285 283 281 280 280 279 280 282 283 282 280 279 279 279 279 280 280 280 279 278 278 278 279 280 280
240 242 243 244 245 251 254 247 241 243 242 241 238 232 226 225 230 242 254 255 242 236 244 249 264 274 269 264 261 258 257 261 271 275 266 259 257 258 263 269 275 279 280 284 290 292 293 294 294 292 289 285 282 278 276 276 277 279 279 278 277 275 275 276 276 278 280 279 278 276 274 274 274 275
241 243 244 244 245 250 251 242 239 239 235 233 237 236 233 230 229 233 245 256 237 226 241 253 263 270 265 254 251 253 255 259 266 269 266 264 267 270 276 281 279 279 283 289 296 298 299 301 301 301 298 293 287 281 278 277 278 280 281 281 280 278 275 275 276 277 279 279 279 278 276 273 271 271
240 243 243 243 244 247 245 239 237 234 231 230 231 233 234 233 231 226 233 253 252 238 251 269 273 270 264 255 249 247 253 261 263 265 267 267 268 273 279 284 283 283 286 291 297 299 298 299 300 301 300 299 297 292 286 282 282 283 285 286 286 284 281 279 278 277 277 278 280 280 280 278 276 273
240 242 241 241 242 243 241 236 233 229 229 230 229 229 228 227 229 224 223 244 257 254 260 268 268 267 264 254 250 248 246 256 265 266 266 264 267 274 282 288 292 294 291 291 294 295 293 294 297 299 301 303 303 301 297 292 288 287 287 286 286 287 286 285 283 281 279 278 278 279 279 279 279 277
238 239 239 239 240 240 238 234 231 227 227 228 227 227 225 221 227 229 225 233 250 258 263 267 270 276 274 264 263 267 260 261 272 270 266 268 272 281 288 292 299 302 297 289 288 289 290 292 297 300 302 303 303 301 298 297 296 296 295 293 290 289 287 286 285 283 281 279 277 276 274 274 275 275
234 236 238 237 238 239 236 232 231 228 227 228 226 225 225 223 227 234 233 232 243 254 256 258 264 273 276 273 272 274 269 267 274 275 274 278 281 286 291 294 301 306 300 287 281 283 286 288 293 298 300 299 298 297 296 298 299 300 300 297 293 291 289 287 285 283 281 279 277 275 273 271 270 270
233 234 236 237 237 238 236 233 233 231 229 229 227 224 226 226 228 234 236 236 240 247 248 250 255 258 264 269 270 269 268 267 273 277 278 280 285 290 293 298 305 309 303 285 275 276 280 282 288 294 296 296 294 293 295 299 303 304 302 298 294 292 292 293 292 289 286 282 279 276 274 272 269 267
233 235 237 238 239 238 235 230 232 234 233 232 229 225 226 229 229 229 233 236 237 238 241 246 252 252 252 257 262 264 264 266 270 273 277 281 287 293 293 294 300 305 302 287 274 273 276 279 286 291 294 293 288 287 294 302 305 304 302 299 297 296 297 298 297 295 294 291 287 283 279 276 273 269
236 237 238 239 239 238 234 230 233 237 236 234 230 227 227 231 230 228 230 234 233 233 236 241 247 248 247 250 256 258 259 263 265 269 277 280 288 299 299 297 301 303 300 289 278 274 274 278 285 289 291 292 288 290 298 304 305 303 300 299 299 299 299 299 297 296 295 295 294 292 288 283 279 275
237 239 240 240 239 239 237 234 236 238 237 234 232 231 230 231 230 227 227 229 229 228 230 235 242 244 245 247 251 256 259 262 261 262 273 279 291 306 307 303 303 302 299 294 283 276 277 282 285 288 290 291 293 298 304 307 307 304 301 299 299 298 298 296 294 292 291 292 293 293 291 287 284 279
237 240 241 241 240 241 241 239 239 240 239 235 233 233 232 230 228 225 221 223 226 226 228 234 239 242 245 248 248 251 252 249 246 247 260 278 293 305 308 306 305 302 299 296 286 278 281 284 287 290 291 291 296 303 306 308 308 306 302 301 299 297 295 291 289 289 289 291 292 292 290 285 281 278
237 240 242 242 241 243 246 244 242 242 241 237 235 236 236 232 229 224 218 220 223 226 232 237 240 244 248 247 244 245 241 235 241 244 246 269 289 300 304 305 307 303 297 291 283 281 283 284 289 294 294 295 303 308 308 306 306 304 303 303 302 300 295 289 288 290 289 290 291 290 290 286 281 278
235 239 242 241 242 245 246 245 244 242 239 237 235 238 241 239 234 225 219 223 227 230 235 239 245 251 254 252 248 251 250 239 245 252 245 264 291 297 294 294 294 296 295 288 285 288 290 290 294 297 296 298 305 307 304 301 301 302 302 303 302 299 294 290 290 291 291 290 289 288 286 285 283 281
233 237 239 240 243 244 243 243 244 240 236 234 233 238 245 245 241 231 225 228 231 232 237 242 247 251 255 258 254 255 258 246 243 255 257 275 294 293 288 289 291 293 296 297 295 295 296 296 296 298 299 302 304 301 299 302 306 306 304 303 301 297 294 293 293 294 294 292 289 286 283 282 282 282
232 235 236 238 241 242 240 239 239 236 232 230 232 240 249 250 247 241 238 238 236 233 237 242 245 248 253 258 255 251 255 250 248 259 267 278 287 286 283 289 294 297 300 304 302 299 299 300 298 298 302 305 304 302 304 307 309 308 307 305 303 300 299 296 294 293 292 291 289 286 284 281 281 281
231 233 234 236 239 241 240 235 232 231 230 228 232 241 249 248 246 243 241 242 241 237 238 242 243 243 248 253 250 247 247 244 251 265 271 274 275 274 278 286 293 296 299 303 303 300 299 301 303 304 307 307 304 304 306 309 311 310 308 306 304 302 300 297 294 293 293 293 291 289 287 285 283 282
231 233 234 236 238 238 237 232 228 229 230 229 231 237 241 241 242 242 240 239 240 238 236 237 239 239 239 241 240 242 243 239 246 261 269 272 271 273 280 288 291 293 295 297 299 297 299 304 306 307 310 309 306 306 306 313 319 318 311 308 306 303 300 298 297 298 297 295 294 293 291 291 289 287
232 234 236 237 237 235 235 233 229 228 231 230 228 230 232 231 232 236 236 232 229 228 228 231 237 238 234 230 228 231 233 234 246 257 263 265 268 275 285 291 292 292 293 292 290 293 299 306 305 305 311 310 307 309 310 315 325 328 318 313 312 308 305 302 301 301 300 297 296 295 293 291 291 290
232 234 235 235 235 233 234 237 233 228 228 226 222 221 219 215 213 219 225 223 216 215 221 228 231 230 228 227 228 231 226 222 232 245 255 260 265 277 288 293 294 296 296 292 294 296 299 306 305 304 310 310 307 311 312 315 327 331 324 317 314 311 309 306 303 300 298 297 298 297 294 292 291 289
229 233 234 234 233 231 233 236 231 224 222 218 213 212 208 204 202 204 212 214 211 212 219 224 224 224 224 226 232 234 225 215 213 225 250 267 273 278 285 289 293 301 302 301 308 303 301 307 308 305 309 311 307 308 311 315 324 327 324 320 317 315 311 305 302 298 296 297 297 296 295 295 294 294
227 231 234 232 230 230 232 234 230 225 223 212 205 205 202 199 198 195 197 200 201 204 208 210 212 215 215 217 219 220 219 223 230 237 252 271 276 269 274 284 296 302 300 303 325 314 305 309 313 310 311 312 311 310 307 309 317 322 322 320 318 319 317 309 303 300 298 299 298 297 297 298 298 299
221 227 230 230 230 230 231 232 229 226 220 208 200 200 198 196 196 191 188 191 193 194 196 198 200 199 199 204 211 220 232 244 251 247 243 248 245 248 270 286 296 301 300 314 331 318 308 310 315 316 316 315 316 316 311 307 310 315 319 318 316 318 320 316 310 307 306 303 300 297 296 297 300 302
216 217 221 225 227 227 227 228 225 218 211 203 197 196 194 193 193 189 186 190 192 190 189 188 187 188 193 201 209 223 238 245 240 224 212 210 210 226 270 284 286 297 301 306 317 315 308 308 311 314 315 311 309 314 313 309 307 310 315 318 315 315 316 315 311 310 309 306 303 300 298 298 301 302
212 210 211 217 221 221 220 219 215 208 205 200 195 193 191 191 193 190 187 187 187 184 181 180 180 185 192 198 202 205 204 198 191 186 187 194 203 226 268 283 285 295 300 302 307 308 302 302 307 311 312 307 305 310 312 310 309 310 311 312 312 312 312 310 308 306 305 306 306 304 303 303 303 303
209 209 208 212 216 215 210 207 205 201 199 198 197 196 194 195 197 193 186 182 180 177 176 176 177 183 187 187 184 180 175 175 176 177 185 198 215 240 261 270 275 284 293 299 303 300 291 294 303 309 311 309 308 310 309 308 311 314 312 310 310 310 310 308 307 305 304 304 303 299 301 303 303 304
206 208 206 208 212 208 200 199 199 196 193 196 199 197 195 195 194 188 181 179 178 174 174 175 176 181 181 177 173 173 172 175 180 186 197 214 237 251 257 261 266 274 283 291 295 292 286 289 295 302 307 308 307 308 308 307 310 314 313 311 310 310 310 307 305 304 303 303 301 298 300 302 300 301
202 202 204 207 207 200 194 194 195 191 191 194 194 192 190 187 183 180 179 179 177 173 174 177 178 180 178 173 172 175 176 183 196 206 220 238 250 253 257 266 274 280 285 288 286 284 285 288 292 296 300 301 302 304 305 306 308 311 313 312 312 311 310 307 303 301 301 301 301 301 300 297 295 295
206 207 209 207 199 192 190 191 190 191 192 191 187 184 182 178 177 178 179 178 177 176 178 180 179 178 177 175 177 183 188 198 210 220 231 244 251 256 263 272 277 279 282 282 277 280 289 293 296 297 296 295 297 299 301 304 306 308 310 310 310 310 308 304 302 301 300 299 300 300 299 296 294 292
212 212 210 201 188 185 187 187 187 191 190 185 181 180 177 174 175 178 180 180 179 178 180 181 178 174 175 179 187 195 200 204 211 220 226 228 232 239 254 269 273 267 266 267 268 279 291 295 297 299 299 296 295 297 300 302 303 305 307 307 307 308 308 305 303 300 298 298 299 299 298 296 293 290
206 204 199 188 182 182 184 183 186 189 185 179 177 176 175 176 177 180 184 185 183 180 178 177 172 169 176 186 193 199 203 203 211 225 227 219 218 225 240 263 274 269 261 257 263 280 291 294 296 299 302 301 299 300 301 300 299 300 304 306 306 307 308 308 305 301 298 299 300 299 297 297 294 290
191 187 182 177 176 176 174 174 178 180 178 176 175 173 173 177 178 181 185 186 183 180 177 173 172 176 184 190 193 198 203 204 213 226 226 221 226 232 244 266 278 279 273 268 274 287 292 292 295 301 305 303 300 300 300 297 295 296 300 304 306 306 307 308 306 304 304 303 302 299 296 296 295 292
175 171 168 167 168 167 164 164 169 173 173 175 176 175 176 178 177 179 184 184 184 184 182 179 180 184 189 192 194 200 206 204 208 222 227 226 230 234 245 263 271 274 278 282 289 294 292 292 298 304 307 304 300 300 297 291 291 296 300 304 306 307 309 310 308 307 307 306 303 300 297 295 295 293
166 162 161 162 163 162 160 162 166 171 174 175 176 178 179 179 178 179 181 182 184 186 185 184 183 185 191 196 198 205 210 202 203 218 223 222 225 233 246 260 263 264 273 284 291 294 293 299 306 308 308 305 298 294 288 282 286 296 300 303 307 308 310 312 310 308 306 304 301 300 298 296 295 295
162 160 161 163 162 161 161 164 168 172 176 176 176 178 178 178 178 179 180 183 186 187 186 185 185 189 197 201 202 208 212 202 199 208 212 214 223 233 245 256 260 262 271 279 286 289 291 302 312 315 316 313 304 296 285 273 278 295 302 305 310 311 311 313 313 309 306 303 301 300 300 299 299 299
161 162 163 163 163 162 162 166 169 172 175 177 178 177 176 176 178 180 183 188 189 187 186 187 189 195 202 204 205 208 206 201 198 200 206 214 223 233 242 247 251 261 272 276 280 284 287 298 313 318 319 319 315 309 299 280 277 294 301 304 309 312 313 313 312 308 305 304 302 300 300 299 300 300
162 166 166 163 163 162 161 164 168 171 175 179 180 180 178 176 177 180 187 191 191 189 190 191 194 200 204 205 204 202 197 197 202 206 213 219 223 232 240 243 248 261 268 271 274 276 279 292 307 309 308 310 307 307 308 301 293 293 295 299 305 311 314 314 311 309 307 304 300 299 299 299 299 299
161 166 168 166 163 160 159 162 167 172 176 178 179 179 177 172 174 181 187 190 190 191 195 197 198 201 203 201 199 196 191 193 204 212 218 222 224 231 238 245 256 265 268 270 271 270 271 284 296 295 295 299 298 301 309 308 303 300 298 296 298 306 315 316 313 311 310 306 302 301 300 297 296 298
164 167 169 168 165 162 162 165 171 176 179 180 181 180 173 166 172 181 185 188 189 191 193 195 195 196 196 192 190 189 187 193 205 215 221 226 227 228 236 251 266 271 272 274 273 272 272 281 292 295 289 288 290 294 299 299 296 295 294 290 286 294 310 317 316 313 310 307 306 306 303 300 300 302
167 170 169 166 165 166 167 170 174 178 181 183 183 182 176 167 170 176 181 186 189 188 184 184 186 186 183 180 182 186 191 199 209 217 223 226 225 226 236 257 271 272 275 278 279 280 279 282 297 302 295 293 296 297 292 286 283 286 290 292 292 295 302 309 312 312 309 307 307 307 306 308 311 311
165 167 168 167 169 173 173 172 173 178 182 183 182 181 176 171 172 177 181 184 184 180 175 175 178 177 175 176 182 191 197 202 209 216 219 221 222 224 234 257 269 270 274 279 282 283 285 291 301 304 302 302 303 299 288 281 285 293 300 305 309 308 305 304 306 308 307 306 305 305 308 313 315 313
160 163 166 168 173 176 173 171 173 178 182 183 181 178 176 175 178 180 179 177 176 172 169 170 172 173 175 180 188 196 201 203 207 211 214 218 222 223 229 244 261 270 277 281 284 286 289 294 299 302 302 300 294 289 288 292 299 305 306 308 312 314 310 307 307 308 308 306 301 299 307 316 320 319
160 162 165 170 176 176 172 173 177 181 182 182 179 177 175 176 178 176 173 171 170 168 167 168 171 175 181 186 191 197 201 202 206 209 213 219 224 228 235 248 264 277 281 281 283 284 287 292 294 294 296 293 285 284 291 297 300 303 306 310 313 313 312 310 308 307 308 307 301 296 300 307 311 310
163 164 168 173 176 175 175 178 181 182 181 179 177 175 174 173 173 172 170 169 168 168 169 171 175 180 186 188 191 197 200 202 207 213 217 221 223 228 243 258 270 279 280 279 280 282 284 290 292 288 289 295 294 290 292 297 300 303 306 310 312 313 316 317 315 312 310 308 304 301 302 303 303 303
165 167 170 173 175 177 179 181 182 181 179 176 175 174 173 172 171 171 170 169 170 172 174 176 180 185 188 190 192 197 200 203 211 217 221 223 224 229 245 261 270 275 276 276 278 282 285 288 289 285 288 295 295 291 291 294 295 297 303 308 313 317 320 320 318 316 314 311 308 308 310 312 313 314
Height
848 849 850 851 852 853 853 854 855 856 857 857 858 859 859 860 861 862 862 861 860 861 862 862 862 862 862 862 863 863 863 863 864 864 864 864 864 865 865 865 865 865 865 865 864 864 864 864 864 863 863 863 862 862 861 861 861 860 859 858 857 857 856 855 855 855 854 854 854 853 853 853 853 852
846 847 848 849 850 851 852 853 853 854 855 856 857 857 858 858 859 860 861 860 859 860 861 861 861 861 861 861 861 862 862 862 863 863 863 863 863 863 864 864 863 863 863 863 863 863 862 862 862 861 861 861 860 860 860 859 859 858 857 857 856 855 855 854 853 853 852 852 852 851 851 851 850 850
844 845 846 848 848 850 850 851 852 852 853 854 855 856 856 857 858 858 859 860 859 859 860 860 860 860 860 860 860 861 861 861 862 862 862 862 862 862 862 862 862 862 862 861 861 861 861 860 860 860 859 859 858 858 857 857 857 856 856 855 855 854 853 853 852 851 850 850 849 849 849 848 848 848
841 843 844 846 846 848 848 849 850 851 851 852 853 854 854 855 857 857 858 858 858 858 859 859 859 859 859 859 859 860 860 860 861 861 861 861 860 860 860 860 860 860 860 860 860 859 859 859 858 858 857 857 856 856 856 855 855 854 854 853 853 852 852 851 850 849 849 848 847 846 846 846 845 845
839 841 842 843 844 845 846 847 848 849 849 850 851 852 853 853 854 855 856 856 856 856 857 858 858 858 858 858 858 859 859 859 859 859 859 859 859 859 859 859 859 859 859 858 858 858 857 857 856 856 855 855 854 854 854 853 853 853 852 852 851 850 850 849 848 848 847 846 845 844 844 843 843 843
836 838 839 840 841 842 843 845 846 847 847 848 849 850 851 852 852 853 854 854 854 854 855 855 856 856 857 857 857 857 858 858 858 858 858 858 858 858 858 858 858 858 857 857 856 856 856 855 855 854 853 853 852 852 852 851 851 851 850 850 849 848 848 847 846 845 844 843 843 842 841 840 840 840
833 835 836 837 838 839 841 842 843 845 846 847 848 848 849 850 851 851 852 853 853 853 853 854 855 855 855 855 856 856 856 856 856 857 857 857 857 857 857 857 856 856 855 854 854 854 853 853 853 852 852 851 850 850 849 849 849 848 848 847 847 846 845 844 843 843 842 841 840 839 838 838 837 837
829 831 832 833 834 836 838 840 841 842 843 844 845 846 846 847 848 849 850 851 852 852 852 852 853 853 854 854 855 855 855 855 855 855 856 856 856 855 855 855 854 853 853 852 852 852 851 851 851 850 850 849 849 848 847 847 846 846 845 844 844 843 842 841 841 840 839 839 838 837 836 835 835 834
825 827 828 829 831 833 835 837 838 839 840 841 842 843 844 845 845 846 847 848 849 850 850 851 851 852 852 853 853 853 853 854 854 854 854 854 854 853 853 852 852 851 850 850 850 850 849 849 848 848 848 847 846 846 845 845 844 843 842 841 840 840 839 839 838 838 837 836 835 834 833 833 832 832
821 823 824 825 827 829 831 833 834 834 836 837 838 839 841 842 843 844 845 846 847 848 848 848 849 849 850 851 851 852 852 852 852 852 852 851 851 851 850 850 849 848 848 848 848 847 847 847 846 846 845 844 844 843 842 842 841 840 839 838 838 837 837 836 836 835 835 834 833 832 831 830 829 829
818 819 820 821 823 825 826 828 829 830 832 834 835 837 839 840 841 841 843 844 844 845 845 846 846 847 848 848 849 849 850 850 850 850 850 849 849 848 847 847 847 846 846 845 845 845 845 844 844 843 842 842 841 841 839 839 838 837 837 836 835 835 834 834 834 833 833 832 831 829 828 828 827 826
814 815 816 817 819 820 821 823 825 827 830 831 833 835 836 838 838 839 840 841 842 843 843 843 843 844 845 846 846 847 847 848 848 848 848 847 846 846 845 845 845 845 844 843 843 842 842 841 841 840 840 839 839 838 837 836 835 834 834 834 833 833 832 832 832 831 830 830 828 827 826 826 825 824
811 812 812 813 815 816 817 819 822 824 827 828 830 832 833 835 836 837 838 839 840 840 841 841 841 842 842 843 844 844 844 845 845 845 845 845 844 844 843 843 843 843 842 842 841 840 840 839 839 838 838 837 836 835 834 833 833 832 832 831 831 830 830 830 829 828 828 827 826 825 824 823 823 822
808 808 809 810 811 812 814 816 818 820 823 825 827 828 830 832 833 834 835 836 837 838 838 839 839 839 839 840 841 842 842 842 843 843 843 843 843 843 842 841 841 841 841 840 839 838 838 838 837 836 836 835 834 833 832 831 831 830 829 829 828 828 827 826 826 825 824 823 822 822 821 820 820 819
804 804 805 806 808 809 811 812 814 816 819 821 823 825 826 828 830 831 833 834 835 836 836 836 837 837 837 838 839 839 840 840 840 840 841 841 841 841 840 839 839 839 839 839 838 837 837 836 835 834 834 833 832 831 830 829 828 827 827 826 826 825 824 823 822 821 821 820 819 818 818 817 816 815
800 801 802 803 804 805 807 809 811 813 816 818 820 822 823 825 827 828 830 831 832 833 833 834 835 835 836 836 837 837 838 838 838 839 839 839 839 839 839 838 838 837 837 837 836 836 835 834 833 832 831 830 829 829 827 826 826 825 824 823 822 822 821 820 819 819 818 817 816 816 815 814 813 812
796 797 798 799 800 802 803 806 808 810 812 815 817 819 820 821 823 825 827 828 829 830 831 832 832 833 834 834 835 835 836 836 837 837 837 838 838 838 837 837 837 836 836 836 835 834 833 833 832 830 830 829 827 826 825 824 823 822 821 820 819 819 818 817 817 816 816 815 814 813 812 811 810 809
792 793 794 795 796 798 799 802 804 806 808 811 813 815 816 818 820 822 824 825 827 828 829 830 830 831 832 832 833 833 834 834 835 835 836 836 836 836 836 835 835 835 834 834 834 832 831 831 830 829 828 827 826 825 823 822 821 820 819 818 817 817 816 815 814 814 813 812 812 811 810 809 808 807
787 788 790 791 793 794 795 798 800 803 805 807 810 811 813 815 817 820 821 823 825 826 827 828 829 830 830 830 831 831 832 833 833 834 834 834 835 835 834 834 834 833 833 833 832 831 830 829 829 828 826 825 824 823 822 820 819 818 817 816 816 815 814 813 813 812 811 810 809 808 807 806 805 804
782 784 785 787 789 790 792 794 796 799 802 804 807 809 810 813 815 817 819 820 822 824 825 826 827 828 828 828 829 830 830 831 832 832 833 833 833 833 833 832 832 831 831 831 831 830 828 828 828 826 825 823 821 820 820 818 817 817 816 815 814 813 812 811 810 809 808 808 807 806 805 804 802 801
777 779 780 783 785 786 788 790 793 796 799 801 804 806 808 810 812 814 816 818 820 821 823 824 825 825 826 827 827 828 828 829 830 831 831 831 831 831 831 831 830 830 830 830 830 829 828 827 826 825 823 821 819 818 818 817 816 815 814 813 812 811 810 809 808 806 805 804 804 803 802 801 800 798
773 774 775 778 780 782 783 786 789 793 796 798 800 803 805 807 809 811 813 815 818 819 821 822 823 824 825 825 825 826 826 827 828 829 829 830 830 830 830 829 829 829 828 828 829 828 827 826 825 824 821 819 818 817 816 815 814 813 812 811 810 809 807 806 805 804 802 801 801 800 799 798 797 795
768 769 771 773 776 778 780 783 786 789 792 794 797 799 801 803 806 808 810 813 815 817 819 820 821 822 823 823 824 824 825 825 826 827 828 828 829 829 828 828 828 827 827 827 827 827 826 825 824 823 820 817 815 815 814 813 812 811 811 809 807 806 805 804 802 801 800 799 798 797 796 795 794 792
764 765 767 769 771 774 777 779 783 785 787 790 793 795 797 799 802 805 808 810 813 815 817 819 820 821 821 822 823 823 823 824 825 825 826 827 828 828 828 828 827 827 826 826 826 826 825 824 823 822 820 817 814 813 812 812 811 810 809 807 806 804 803 802 800 799 797 796 795 794 793 792 791 790
760 761 763 765 767 770 773 776 779 781 783 786 789 791 793 796 799 802 805 808 811 814 815 817 818 819 820 821 821 822 822 823 824 824 825 826 826 827 827 827 826 826 826 825 825 825 824 823 822 820 819 817 814 812 811 810 809 808 807 806 804 803 801 800 798 797 795 793 792 791 790 789 788 787
756 757 759 761 763 766 770 773 776 778 780 783 785 787 789 793 796 800 803 806 809 812 813 815 816 817 818 819 820 820 821 822 823 823 824 825 825 825 826 826 826 825 825 824 824 824 823 822 821 819 817 815 813 812 810 808 807 807 806 805 803 801 800 798 796 795 793 792 790 789 787 786 784 783
752 754 756 758 760 764 768 771 773 776 778 780 782 784 786 790 794 798 801 804 807 809 811 812 814 815 816 817 818 819 820 821 821 822 823 823 824 824 824 824 824 824 823 823 822 822 821 821 819 818 816 814 812 811 809 807 806 805 804 803 802 800 798 796 795 793 791 790 788 786 785 783 781 779
748 750 752 755 758 762 766 769 772 775 777 778 779 781 784 788 791 795 798 801 804 806 808 809 811 813 814 815 816 817 818 819 820 820 821 821 822 822 822 822 822 822 821 821 820 820 820 819 818 816 815 813 812 810 809 807 805 804 803 801 800 798 797 795 793 791 789 788 786 784 782 780 779 777
743 745 748 751 756 760 764 767 772 775 776 776 777 779 782 785 788 792 796 798 800 803 805 807 809 810 811 813 814 815 816 817 818 818 819 819 820 820 820 820 820 819 819 819 819 818 818 817 816 814 813 812 810 809 808 806 805 804 802 800 798 796 795 793 791 789 787 786 784 782 780 778 776 775
738 742 745 749 753 757 760 765 770 774 775 776 777 778 780 783 785 788 792 795 797 799 802 804 806 808 809 811 812 813 814 815 816 817 817 818 818 818 819 819 818 818 817 817 817 817 816 815 814 812 810 809 809 808 807 806 804 802 801 799 796 794 792 791 789 787 785 783 781 779 778 776 774 772
734 738 742 746 750 754 758 762 768 772 775 775 776 777 779 781 783 785 788 792 794 796 799 801 803 805 807 808 810 811 813 814 814 815 815 816 816 817 817 817 817 816 816 815 815 815 814 813 812 810 808 807 807 806 806 805 803 801 799 798 796 793 790 789 787 785 783 781 779 776 774 772 771 769
730 734 739 743 748 751 754 759 765 770 773 774 774 775 777 779 781 783 786 789 792 794 796 798 800 802 804 806 808 810 811 812 812 812 813 814 814 815 815 815 815 814 814 814 813 813 812 811 809 808 806 805 804 804 804 803 802 800 798 796 795 792 790 788 785 782 781 779 776 773 771 769 767 765
725 730 734 739 744 747 750 755 762 768 771 772 773 773 774 776 778 780 784 787 789 791 793 795 797 800 802 804 806 807 808 809 809 810 811 812 812 813 814 813 813 812 812 811 811 811 810 809 807 805 803 802 802 802 802 801 799 798 797 795 793 791 788 786 784 781 779 777 774 771 768 765 763 761
720 725 730 735 739 741 745 751 758 764 768 769 770 770 771 772 774 777 782 785 786 788 790 792 795 798 800 802 803 804 805 806 807 808 809 810 811 811 811 811 811 810 810 809 809 808 807 806 804 802 800 799 798 799 799 798 797 796 795 794 792 790 787 785 782 779 777 775 772 768 764 761 759 757
715 719 725 731 734 736 741 747 754 760 764 766 767 767 767 769 771 775 779 782 783 785 788 790 792 795 797 799 800 801 802 803 804 806 807 808 809 809 809 809 808 808 808 807 807 806 805 804 802 800 798 797 795 794 795 795 795 795 794 792 791 789 786 783 780 778 775 772 770 767 762 758 755 753
711 715 720 724 727 731 736 743 750 755 760 763 764 764 765 766 768 771 775 778 781 783 785 788 790 792 794 796 797 798 799 801 802 804 805 806 807 807 807 807 806 806 806 805 805 804 803 802 800 798 796 795 794 792 792 792 793 793 792 791 789 787 784 781 779 776 773 770 768 765 761 756 751 749
708 714 717 719 721 724 729 736 744 751 757 760 761 762 763 763 764 769 773 776 779 781 783 785 787 790 792 793 794 795 797 798 800 801 803 804 804 805 805 804 804 804 804 803 803 802 801 800 799 797 796 795 794 792 791 790 791 791 790 788 787 784 782 779 776 773 770 768 765 762 759 754 749 745
706 713 717 717 716 718 722 730 739 748 754 757 759 761 761 761 763 767 771 774 777 779 780 783 785 787 789 790 791 792 794 796 797 799 800 801 802 802 802 802 802 802 802 801 801 800 799 798 796 795 795 795 794 792 790 789 789 788 788 786 784 782 780 777 774 770 768 765 762 759 756 752 747 742
704 710 715 715 714 714 718 725 733 743 750 754 757 759 759 759 761 765 769 772 774 776 778 780 782 784 786 787 788 790 792 793 795 796 798 799 799 800 800 800 800 800 800 799 798 797 796 795 794 794 794 794 794 793 791 789 787 786 785 783 782 780 778 776 773 769 765 762 759 756 753 749 744 739
702 708 712 715 716 716 718 721 728 738 746 751 754 757 757 757 760 763 767 770 771 773 776 778 780 781 783 784 786 788 789 791 793 794 795 796 797 798 798 798 798 798 798 797 796 795 794 793 792 792 792 792 792 791 790 788 785 782 781 780 779 778 776 774 771 768 764 760 757 753 749 745 740 736
699 705 707 711 717 720 719 721 727 736 743 748 752 754 755 756 758 762 765 767 768 771 773 775 777 779 781 782 784 786 787 789 790 791 793 794 795 796 796 796 796 796 796 795 794 793 792 791 790 790 789 789 789 789 787 784 781 779 778 777 776 774 773 770 769 766 762 759 756 752 747 743 737 732
698 702 705 710 717 721 721 723 729 736 742 746 749 751 753 755 758 760 763 764 766 768 771 773 775 777 779 781 783 784 785 786 787 789 791 792 793 793 793 794 794 794 794 793 792 791 790 789 788 787 787 787 787 786 784 781 779 777 776 775 773 772 770 767 765 763 759 757 754 751 746 742 737 731
697 700 705 711 718 722 723 726 731 736 740 743 746 748 751 754 757 759 761 762 764 766 769 771 773 775 777 779 781 782 783 784 785 787 789 790 790 790 791 791 792 792 792 792 791 790 789 787 786 785 785 784 784 784 782 780 778 776 774 772 771 769 768 765 762 759 756 753 751 749 746 743 738 733
694 699 705 711 717 721 724 728 731 734 737 741 743 746 749 752 755 757 759 760 762 764 767 769 771 773 775 777 779 780 780 781 783 785 787 788 788 788 789 789 790 791 791 790 790 788 787 785 784 783 782 782 782 781 780 778 776 774 772 771 769 766 764 762 759 756 752 750 747 745 743 741 737 733
695 700 706 710 715 719 724 727 730 732 735 738 741 744 748 751 753 755 756 758 760 762 765 767 769 771 773 775 776 777 778 779 781 783 785 786 786 786 787 788 789 789 789 789 788 787 785 783 782 780 780 780 779 779 778 776 775 773 771 769 767 765 762 759 756 752 749 747 745 742 740 737 734 730